Find KUIPER-00512

NORAD ID: 68889 Int'l Des: 2026-095AB Owner: kuiper Country: USA Constellation: kuiper operational
LEOCIRCULAR

Live-Position

3D-Globus wird geladen...

Über KUIPER-00512

Beschreibung wird geladen...

Nächste Überflüge

Passes for default location (London). Set your location on the main map for personalized predictions.

Höhenverlauf

Loading altitude history...

Zweizeiliger Elementsatz

1 68889U 26095AB 26120.66670139 -.00007240 00000-0 -18458-3 0 9994
2 68889 51.8781 112.1605 0005435 109.7619 67.2236 15.37295397 1500
Epoch: 30. Apr. 2026 • Age: 32 hours

Aktueller Status

Höhe 471.6 km
Geschwindigkeit 7.63 km/s
Subsatellitenpunkt -41.79°S, 154.6°W
Typ internet

Most Searched